Vorticity
4 3 3 1 2 4 8 7 15 21 28 30 12 16 14 11 0 8 9 9 16 9 5 4 5 4 4 4 4 7 5 7 9 7 7 7 2 10 12 6 4 4 5 5
4 2 4 7 16 29 31 39 47 42 52 47 73 47 17 19 12 5 3 8 9 21 9 1 2 2 1 1 4 8 6 7 6 11 11 4 6 1 8 4 3 4 8 6
6 12 14 30 52 38 32 36 6 5 17 12 6 49 47 35 21 13 8 4 11 13 14 13 8 -4 -1 -3 -0 0 5 3 4 4 5 3 5 4 3 3 6 5 6 6
16 26 29 50 -4 1 -2 7 8 3 9 18 9 18 56 23 37 27 20 9 8 14 17 11 2 9 4 -5 4 2 8 2 2 -0 3 -4 6 3 8 11 11 3 5 5
18 34 32 -0 -2 1 12 13 18 13 38 34 42 52 56 36 59 55 19 8 10 14 11 11 13 9 8 14 11 7 7 1 0 6 -0 30 -1 3 12 6 4 7 7 9
22 16 -1 5 -1 33 17 18 30 43 1 36 76 21 4 34 28 53 34 36 22 25 19 14 7 17 14 5 9 14 14 13 8 -2 4 -6 23 8 6 5 6 11 5 7
7 6 3 10 11 6 29 29 30 20 28 46 6 26 24 1 15 41 11 -2 8 22 17 19 14 2 6 14 3 4 8 12 13 9 5 6 6 7 5 0 7 8 5 5
32 6 19 7 -2 23 35 1 12 -2 9 10 8 -0 13 -2 10 34 27 14 10 7 19 24 23 19 8 12 12 11 5 7 6 10 15 18 19 1 6 5 10 7 8 2
-4 19 16 14 47 22 7 -3 15 -18 51 19 12 1 17 -2 18 52 15 8 2 10 -1 -5 22 11 13 9 10 6 6 13 8 10 2 5 15 17 10 3 11 11 1 7
17 25 11 9 33 14 3 7 4 -3 11 12 15 7 25 24 3 6 15 21 24 2 18 5 2 -6 4 8 6 4 5 3 0 5 1 -5 13 1 4 20 6 3 16 10
5 12 22 16 49 22 13 8 0 7 12 25 7 20 10 17 10 21 -0 19 -1 13 15 -3 14 25 13 -1 -3 0 -3 5 3 -4 -1 -4 9 2 -7 -3 -0 8 14 14
1 10 16 12 9 38 9 12 6 1 3 -9 14 39 9 26 14 9 4 10 5 4 7 9 9 22 27 -4 12 10 18 6 6 -2 -5 -16 14 30 24 30 23 9 3 19
3 2 13 17 3 1 21 20 9 12 17 16 20 31 2 14 10 9 10 10 11 6 13 12 13 2 2 5 13 15 25 39 36 34 41 10 24 18 24 22 18 18 17 21
6 2 6 10 16 23 20 18 13 10 27 1 1 10 77 -5 15 17 16 24 18 11 -6 27 7 21 34 28 20 0 6 4 6 3 3 -4 11 17 15 19 19 15 15 12
26 3 6 16 -10 3 24 21 14 -3 -6 12 -2 16 24 25 30 70 -43 -50 4 45 -1 18 3 18 45 19 11 10 -6 -0 -0 4 8 27 23 20 11 21 17 19 16 18
59 8 -0 13 -11 23 -12 29 8 1 4 4 4 -31 -19 9 6 21 35 74 67 11 -1 -5 1 15 5 15 11 13 16 18 21 18 13 4 6 15 21 19 14 7 11 11
58 17 4 2 5 8 22 11 27 18 17 9 6 16 -9 -15 16 15 11 22 48 13 29 25 10 18 -3 3 3 9 12 8 21 14 21 15 33 -3 10 10 12 17 6 15
40 17 9 10 7 19 0 -24 7 4 17 8 29 26 22 23 12 -12 9 15 9 22 20 4 9 11 7 6 3 3 2 0 8 3 5 11 8 15 23 12 12 18 26 17
19 17 15 11 -7 7 -4 8 15 14 13 16 -12 3 2 -5 3 27 4 -8 3 8 10 18 6 4 2 3 3 9 9 10 12 11 10 9 14 14 18 17 14 8 10 11
18 8 15 12 10 7 -6 -2 2 -2 5 15 12 11 8 15 5 4 13 11 13 14 10 7 4 8 9 8 7 4 6 9 10 10 11 11 11 12 16 10 9 9 7 6
9 10 11 19 14 10 10 10 -1 8 7 8 5 2 6 10 12 4 6 19 9 6 9 11 10 9 9 10 11 11 11 10 8 6 8 8 9 12 12 11 16 12 9 11
3 12 7 10 15 13 9 10 6 7 9 5 2 2 8 4 5 10 5 3 10 9 13 13 8 8 11 12 7 8 9 8 6 7 10 9 11 11 12 13 11 8 15 13
10 2 4 14 16 6 0 15 6 20 24 18 9 16 10 8 6 5 1 4 7 8 3 5 -1 2 1 8 13 12 13 13 14 18 14 21 16 14 17 15 20 18 33 31
10 8 3 -2 -9 -0 5 12 14 8 -0 7 16 19 6 10 15 14 11 8 6 9 1 7 0 0 5 14 11 10 9 10 10 17 13 -1 34 37 29 16 28 18 23 31
9 13 9 7 11 16 16 11 6 6 12 16 3 3 3 14 7 16 5 16 13 15 23 15 12 16 15 12 10 17 15 12 12 20 13 6 -1 24 26 31 29 28 22 -20
13 10 12 7 4 3 7 10 12 20 17 16 9 11 10 -1 12 10 11 9 15 7 10 13 12 12 17 15 16 17 14 17 15 16 18 14 8 25 18 24 44 36 -13 13
Height
5669 5666 5659 5653 5641 5635 5632 5621 5613 5619 5611 5615 5616 5609 5609 5648 5644 5652 5666 5674 5683 5690 5701 5707 5713 5716 5720 5726 5735 5738 5743 5748 5750 5753 5754 5756 5759 5761 5762 5764 5764 5764 5766 5767
5657 5650 5643 5637 5624 5612 5609 5601 5593 5585 5592 5579 5583 5566 5578 5603 5619 5622 5642 5654 5665 5676 5684 5693 5701 5706 5709 5713 5722 5729 5732 5736 5741 5746 5748 5748 5750 5753 5753 5755 5757 5759 5760 5760
5644 5632 5626 5616 5611 5596 5594 5583 5577 5570 5576 5565 5558 5548 5552 5569 5591 5602 5618 5634 5646 5659 5672 5680 5686 5693 5698 5703 5708 5717 5722 5725 5729 5734 5739 5741 5742 5741 5745 5748 5747 5749 5750 5752
5626 5615 5608 5605 5599 5589 5586 5580 5566 5559 5552 5545 5543 5523 5533 5543 5559 5580 5597 5615 5633 5643 5655 5666 5667 5674 5682 5690 5696 5701 5709 5713 5717 5722 5729 5732 5733 5730 5736 5735 5738 5740 5742 5744
5612 5604 5602 5599 5594 5586 5579 5573 5561 5548 5539 5527 5530 5516 5530 5540 5550 5568 5585 5604 5619 5632 5641 5650 5655 5660 5669 5681 5687 5689 5698 5704 5709 5711 5715 5720 5722 5720 5719 5725 5729 5734 5736 5736
5603 5598 5598 5595 5590 5581 5572 5563 5551 5542 5534 5522 5522 5517 5532 5542 5556 5568 5583 5594 5605 5620 5630 5639 5645 5651 5660 5670 5677 5682 5688 5694 5698 5703 5706 5707 5709 5709 5709 5713 5719 5722 5725 5726
5601 5597 5594 5589 5585 5577 5569 5562 5548 5542 5535 5530 5527 5530 5538 5548 5556 5561 5573 5583 5595 5607 5618 5628 5637 5644 5653 5661 5667 5674 5678 5682 5687 5692 5695 5697 5698 5699 5703 5707 5711 5715 5715 5716
5596 5593 5588 5583 5579 5573 5566 5562 5555 5544 5541 5540 5537 5536 5540 5547 5548 5555 5564 5576 5590 5602 5611 5620 5628 5635 5641 5649 5656 5662 5667 5672 5676 5680 5684 5686 5688 5691 5693 5695 5699 5704 5705 5706
5590 5587 5583 5579 5575 5570 5566 5562 5557 5549 5548 5546 5545 5545 5548 5549 5549 5556 5566 5576 5588 5597 5606 5613 5620 5626 5632 5639 5646 5652 5657 5661 5665 5668 5671 5674 5677 5679 5683 5685 5688 5693 5693 5696
5587 5584 5580 5579 5574 5570 5565 5563 5560 5552 5552 5553 5552 5552 5552 5555 5555 5560 5564 5572 5584 5592 5601 5608 5614 5619 5625 5632 5637 5643 5646 5650 5654 5657 5659 5662 5666 5668 5671 5673 5675 5680 5683 5685
5585 5581 5580 5577 5573 5569 5567 5564 5561 5558 5556 5555 5556 5557 5556 5558 5563 5568 5571 5575 5581 5585 5593 5602 5608 5612 5617 5624 5630 5634 5639 5642 5645 5648 5651 5653 5654 5656 5657 5659 5662 5667 5671 5673
5585 5581 5577 5575 5572 5570 5566 5564 5562 5561 5558 5555 5555 5559 5558 5561 5565 5569 5573 5577 5582 5586 5592 5596 5602 5608 5612 5616 5619 5621 5625 5631 5636 5639 5641 5644 5646 5646 5644 5645 5648 5652 5656 5660
5582 5580 5576 5573 5571 5568 5567 5563 5562 5560 5559 5559 5558 5561 5561 5558 5564 5568 5570 5574 5578 5583 5587 5590 5596 5600 5604 5608 5613 5618 5622 5625 5626 5628 5629 5631 5631 5633 5633 5634 5636 5638 5642 5646
5577 5576 5575 5571 5569 5566 5564 5561 5561 5560 5559 5559 5560 5558 5557 5563 5561 5567 5566 5572 5576 5580 5584 5585 5590 5595 5600 5603 5605 5609 5612 5614 5616 5617 5619 5620 5620 5620 5622 5622 5623 5625 5628 5632
5571 5571 5571 5568 5568 5565 5562 5561 5559 5560 5560 5559 5560 5558 5558 5557 5561 5559 5556 5561 5573 5574 5580 5584 5587 5589 5590 5595 5598 5601 5603 5607 5608 5608 5609 5609 5608 5609 5609 5610 5612 5614 5616 5620
5564 5565 5566 5565 5566 5565 5561 5561 5559 5559 5560 5560 5559 5560 5560 5558 5557 5558 5560 5564 5564 5567 5573 5578 5578 5583 5585 5589 5590 5595 5598 5598 5598 5597 5598 5598 5598 5599 5599 5601 5604 5605 5607 5609
5560 5560 5561 5563 5564 5564 5561 5560 5557 5559 5559 5559 5559 5560 5558 5558 5560 5559 5559 5561 5564 5566 5569 5573 5577 5579 5582 5584 5585 5588 5589 5589 5589 5588 5587 5587 5588 5589 5590 5592 5593 5595 5596 5599
5559 5559 5559 5561 5562 5562 5561 5560 5558 5557 5558 5558 5558 5559 5560 5558 5559 5560 5559 5560 5563 5565 5566 5569 5571 5575 5578 5580 5581 5582 5582 5581 5581 5580 5579 5578 5579 5579 5579 5581 5582 5584 5586 5589
5560 5559 5559 5559 5560 5561 5560 5560 5559 5558 5559 5559 5558 5557 5558 5557 5558 5559 5560 5561 5562 5564 5566 5567 5570 5573 5574 5575 5574 5574 5574 5573 5572 5571 5570 5568 5569 5569 5569 5569 5571 5572 5575 5578
5561 5560 5560 5559 5558 5558 5559 5559 5558 5558 5558 5557 5558 5558 5558 5559 5560 5560 5559 5559 5559 5560 5563 5565 5567 5567 5567 5568 5567 5565 5565 5565 5564 5562 5560 5559 5557 5557 5558 5559 5561 5562 5564 5567
5560 5559 5558 5557 5556 5557 5556 5557 5557 5558 5559 5555 5554 5555 5555 5556 5556 5557 5557 5557 5558 5559 5559 5560 5561 5561 5561 5559 5558 5559 5559 5558 5556 5553 5550 5548 5546 5545 5546 5548 5548 5550 5552 5555
5557 5557 5556 5555 5555 5555 5554 5554 5555 5554 5553 5552 5552 5551 5551 5551 5551 5552 5553 5554 5555 5555 5555 5555 5555 5555 5554 5553 5552 5551 5549 5548 5545 5544 5541 5539 5538 5536 5536 5536 5536 5537 5539 5540
5554 5553 5553 5554 5553 5552 5551 5550 5550 5549 5548 5548 5547 5547 5546 5546 5547 5548 5548 5548 5548 5549 5549 5548 5548 5548 5547 5546 5545 5544 5542 5539 5538 5536 5533 5530 5527 5526 5524 5524 5524 5524 5526 5527
5549 5549 5549 5549 5550 5549 5548 5548 5547 5546 5545 5543 5542 5542 5541 5540 5540 5541 5542 5542 5543 5543 5543 5542 5542 5542 5541 5540 5538 5536 5533 5532 5531 5528 5526 5524 5519 5515 5513 5511 5510 5512 5514 5517
5546 5545 5544 5543 5543 5543 5543 5543 5542 5541 5540 5539 5539 5538 5536 5535 5535 5534 5534 5534 5535 5534 5535 5535 5535 5535 5534 5533 5531 5530 5528 5526 5525 5522 5519 5515 5511 5506 5502 5499 5497 5500 5505 5509
5539 5539 5539 5539 5539 5538 5537 5536 5535 5534 5533 5533 5532 5532 5532 5530 5529 5528 5527 5527 5527 5527 5526 5526 5526 5527 5526 5526 5524 5523 5522 5521 5518 5515 5512 5509 5506 5501 5497 5492 5490 5491 5496 5499